www.pogodaiklimat.ru

Погода и климат >> Архив погоды >> Россия >> Якутия >> Делянкир


ПОГОДА в Делянкире

  • Прогноз погоды в Делянкире
  • Монитор погоды в Делянкире
  • Климат города

АРХИВ ПОГОДЫ в Делянкире

Время (UTC), дата Ветер
(напр.,м/с)
 
Видим.   Явления Облачность Т
(С)
Тd
(С)
f
(%)
Тe
(С)
Тes
(С)
Комфортность P
(гПа)
Po
(гПа)
Тmin
(С)
Tmax
(С)
R
(мм)
R24
(мм)
S
(см)
21 18.06 Ю 1 50 км 8/4 1000 м
[Sc As trans]
+10.2 +4.9 70 +10 +12 1010.8 918.8 +1.5
00 19.06 ЮВ 1 50 км 6/3 1000 м
[Cu med, cong Ci sp]
+16.0 +4.5 46 +17 +25 1008.1 918.1
03 19.06 Ю 1 50 км 8/5 600 м
[Cb cap Ci fib]
+19.0 +3.9 37 +20 +27 1006.9 917.8
06 19.06 ЮВ 1 50 км в посл. час ливневой дождь 6/6 600 м
[Cb cap]
+17.4 +6.2 48 +18 +22 1007.0 917.5
09 19.06 Ю 1 50 км осадки на расстоянии 8/6 600 м
[Cb cap As trans]
+17.1 +4.7 44 +18 +19 1007.6 917.9 +20.2 1
12 19.06 В 1 50 км 6/6 1000 м
[Sc]
+10.6 +6.8 77 +10 +10 1009.7 917.9
15 19.06 В 1 50 км 6/6 1000 м
[Sc]
+3.0 +2.2 94 +1 +1 1012.5 918.0
18 19.06 ЮВ 1 50 км 6/5 1000 м
[Sc Ci fib]
+0.2 -0.6 94 -2 -2 1013.9 918.4
21 19.06 Ю 1 50 км 8/8 1000 м
[Sc]
+10.6 +4.1 64 +11 +12 1010.0 918.2 0.0
00 20.06 З 2 50 км 3/3 1000 м
[Cu med, cong]
+17.4 +5.7 46 +18 +25 1007.7 918.2
03 20.06 ЮВ 3 50 км 8/8 600 м
[Cb cap]
+20.0 +3.0 32 +21 +23 комфорт 1005.3 916.6
06 20.06 ЮВ 2 50 км 6/6 600 м
[Cb cap]
+21.2 +3.2 31 +21 +24 комфорт 1003.4 915.3
09 20.06 ЮЗ 2 50 км 6/6 600 м
[Cb cap]
+19.3 +4.9 39 +20 +21 1004.0 915.3 +22.0
12 20.06 ЮВ 1 50 км 4/3 1000 м
[Sc Ci fib]
+14.2 +6.1 58 +15 +15 1006.4 916.0
15 20.06 Ю 1 50 км 3/3 1000 м
[Sc]
+4.4 +1.3 80 +3 +3 1009.7 915.9
18 20.06 ЮВ 2 50 км 6/6 1000 м
[Sc]
+6.0 +3.9 86 +4 +4 1009.6 916.4
21 20.06 Ю 1 50 км 6/6 1000 м
[Sc]
+10.5 +5.5 71 +10 +12 1008.3 916.6 +3.5
00 21.06 Ю 2 50 км 3/3 1000 м
[Cu Sc]
+18.9 +3.1 35 +20 +27 1005.0 916.1
03 21.06 Ю 2 50 км 8/6 600 м
[Cb cap As trans]
+20.3 +3.5 33 +21 +25 комфорт 1004.1 915.6
06 21.06 ЮЗ 2 50 км 8/8 600 м
[Cb cap]
+21.0 +0.7 26 +22 +23 комфорт 1002.5 914.4
09 21.06 ЮЗ 2 50 км 8/5 600 м
[Cb cap Ci fib]
+21.7 +1.7 27 +21 +22 комфорт 1002.3 914.4 +22.7
12 21.06 ЮВ 1 50 км 10/1 1000 м
[Sc Ci fib]
+18.3 +3.3 37 +20 +20 1003.3 914.4
15 21.06 Ю 1 50 км 3/0
[Ci fib]
+4.8 +2.1 83 +4 +4 1008.9 915.3
18 21.06 штиль 0 50 км 10/0
[Ci sp]
+4.8 +4.1 95 +4 +4 1010.4 916.7
21 21.06 СВ 1 50 км 10/3 1000 м
[Sc Ci fib]
+12.7 +4.4 57 +13 +16 1008.4 917.4 +4.1
00 22.06 ЮВ 2 50 км 8/1 1000 м
[Cu hum Ac As Ci fib]
+18.2 +3.2 37 +19 +25 1006.3 917.1
03 22.06 Ю 2 50 км 9/4 1000 м
[Cu Sc Ac As Ci fib]
+19.5 +3.8 35 +20 +25 1005.5 916.7
06 22.06 З 2 50 км 10/6 600 м
[Cb cap Ac As]
+19.9 +5.3 38 +21 +22 комфорт 1005.2 916.5
09 22.06 З 2 50 км 10/8 1000 м
[Sc Cs]
+19.0 +6.9 45 +20 +20 1005.1 916.3 +20.6
12 22.06 В 1 50 км 9/3 1000 м
[Sc Ac As Cs]
+14.7 +10.7 77 +15 +15 1007.2 917.1
15 22.06 В 1 50 км 10/0
[Ac As Cs]
+5.2 +4.7 97 +4 +4 1010.8 917.2
18 22.06 В 1 50 км 10/3 1000 м
[Sc Ac As Cs]
+4.9 +4.4 97 +3 +4 1011.6 917.8
21 22.06 Ю 1 50 км 9/3 1000 м
[Sc As trans Cs]
+11.1 +6.9 75 +11 +13 1009.8 918.2 +3.7
00 23.06 С 1 50 км 9/3 1000 м
[Cu med, cong As op Cs]
+17.5 +9.3 59 +19 +24 1007.4 918.0
03 23.06 Ю 1 50 км 8/3 600 м
[Cb cap As trans Ci sp]
+21.9 +3.7 30 +22 +29 комфорт 1004.6 916.5
06 23.06 С 2 50 км 8/8 600 м
[Cb cap]
+20.9 +7.1 41 +23 +24 комфорт 1005.0 916.7
09 23.06 СВ 1 50 км 6/3 1000 м
[Sc As trans Ci sp]
+23.6 +5.7 31 +24 +25 комфорт 1003.5 916.1 +24.0
12 23.06 ЮВ 1 50 км 8/5 1000 м
[Sc Ci sp]
+16.1 +7.5 57 +17 +17 1006.1 916.4
15 23.06 С 1 50 км 6/6 1000 м
[Sc]
+6.9 +5.1 88 +6 +6 1009.8 916.9
18 23.06 ЮВ 1 50 км 9/9 600 м
[Cb cap]
+5.9 +4.5 91 +5 +5 1010.8 917.4
21 23.06 штиль 0 50 км 10/3 1000 м
[Sc Ac As Ci fib]
+12.3 +6.7 69 +12 +14 1009.0 917.8 +4.8
00 24.06 С 2 50 км 10/8 1000 м
[Sc Ac As]
+15.5 +8.9 65 +15 +16 1008.2 918.1
03 24.06 Ю 2 50 км 8/8 600 м
[Cb cap]
+19.2 +7.2 46 +20 +23 1006.3 917.4
06 24.06 ЮВ 1 50 км 6/6 600 м
[Cb cap]
+21.0 +6.9 40 +23 +27 комфорт 1004.5 916.3
09 24.06 З 2 50 км 4/4 1000 м
[Cu Sc]
+20.9 +6.0 38 +22 +24 комфорт 1003.9 915.6 +22.1
12 24.06 Ю 1 50 км 8/8 600 м
[Cb cap]
+14.3 +8.8 69 +15 +15 1006.5 916.2
15 24.06 ЮВ 1 50 км 6/6 1000 м
[Sc]
+7.5 +6.2 91 +7 +7 1009.3 916.6
18 24.06 В 1 50 км 3/3 1000 м
[Sc]
+5.0 +3.8 92 +4 +4 1010.2 916.6
21 24.06 В 1 50 км ясно +11.1 +5.5 68 +11 +16 1007.7 916.3 +3.6
00 25.06 В 1 50 км 3/3 1000 м
[Cu med, cong]
+18.9 +8.0 49 +21 +29 комфорт 1003.8 915.1
03 25.06 Ю 1 50 км 4/4 600 м
[Cb cap]
+22.5 +3.2 28 +22 +31 комфорт 1000.9 913.4
06 25.06 С 2 50 км 6/4 600 м
[Cb cap Ci sp]
+24.0 +3.3 26 +23 +28 комфорт 998.9 911.9
09 25.06 С 2 50 км 8/3 600 м
[Cb cap Ci sp]
+24.7 +3.9 26 +24 +25 комфорт 996.8 910.3 +25.0
12 25.06 В 1 50 км 8/6 600 м
[Cb cap Ci sp]
+20.7 +4.8 35 +22 +22 комфорт 997.6 909.8
15 25.06 В 1 50 км 6/6 1000 м
[Sc]
+10.1 +6.2 77 +10 +10 1001.3 910.2
18 25.06 В 1 50 км 8/3 1000 м
[Sc Ac As Ci sp]
+6.6 +4.8 88 +6 +6 1002.7 910.3

 

Местоположение метеостанции Делянкир (Якутия, Россия): широта 63.83 долгота 145.60 высота над уровнем моря 801 м.

В архиве по умолчанию представлена погода в Делянкире за последнюю неделю. Архивные данные за месяц целиком и за предыдущие месяцы, начиная с января 2011 года, Вы можете получить, выбрав интересующий диапазон дат из раскрывающегося списка и нажав кнопку "Ввод!".


*Определитесь, кто Вы:
робот инопланетянин человек

Внимание! Время в таблицах - всемирное. Для получения местного времени необходимо прибавить поправку, которая в Делянкире равна 10 ч.

Смотрите также архив погоды в соседних городах и на ближайших метеорологических станциях:

Погода в Оймяконе (Якутия, Россия) (140 км)
Погода в Усть-Нере (Якутия, Россия) (144 км)
Погода в Сусумане (Магаданская область, Россия) (171 км)
Погода в Юртах (Якутия, Россия) (187 км)
Погода в Агаякане (Якутия, Россия) (201 км)
Погода в Колымской (Магаданская область, Россия) (242 км)
Погода в Ягодной (Магаданская область, Россия) (249 км)
Погода в Совхозе Эльген (Магаданская область, Россия) (275 км)
Погода в Озере Джека Лондона (Магаданская область, Россия) (277 км)
Погода в Восточной (Якутия, Россия) (305 км)

Пояснения к столбцам:

Ветер - указаны скорость ветра в м/с - средняя за 10 мин, порывы в срок и между сроками (в фигурных скобках) и направление, откуда дует ветер: С - северный, СВ - северо-восточный, В - восточный, ЮВ - юго-восточный, Ю - южный, ЮЗ - юго-западный, З - западный, СЗ - северо-западный.
Видимость - горизонтальная дальность видимости в метрах или километрах. При видимости от 1 до 10 км при отсутствии осадков обычно наблюдается дымка, при ухудшении видимости до 1 км и менее - туман. В сухую погоду видимость может ухудшаться дымом, пылью или мглою.
Явления - указаны атмосферные явления, наблюдавшиеся в срок или в последний час перед сроком; фигурными скобками обозначены явления, наблюдавшиеся между сроками (за 1-3 часа до срока); квадратными скобками обозначены град или гололедные отложения с указанием их диаметра в мм.
Облачность - указаны через наклонную черту общая и нижняя облачность в баллах и высота нижней границы облаков в метрах; квадратными скобками обозначены формы облаков: Ci - перистые, Cs - перисто-слоистые, Cc - перисто-кучевые, Ac - высококучевые, As - высокослоистые, Sc - слоисто-кучевые, Ns - слоисто-дождевые, Cu - кучевые, Cb - кучево-дождевые. Подробнее классификацию облаков см. в Атласе облаков (PDF).
T - Температура воздуха - температура, измеренная на высоте 2 м над землей.
Td - Температура точки росы - температура, при понижении до которой содержащийся в воздухе водяной пар достигнет насыщения.
f - Относительная влажность воздуха - влажноcть воздуха, измеренная на высоте 2 м над землей.
Te - Эффективная температура - температура, которую ощущает одетый по сезону человек в тени. Характеристика душности погоды. При расчете учитывается влияние влажности воздуха и скорости ветра на теплоощущения человека.
Tes - Эффективная температура на солнце - температура, которую ощущает человек, с поправкой на солнечный нагрев. Характеристика знойности погоды. Зависит от высоты солнца над горизонтом, облачности и скорости ветра. Ночью, в пасмурную погоду, а также при ветре 12 м/с и более поправка равна нулю.
P - Атмосферное давление - приведенное к уровню моря атмосферное давление.
Po - Атмосферное давление - измеренное на уровне метеостанции атмосферное давление.
Tmin - Минимальная температура - минимум температуры воздуха на высоте 2 м над землей.
Tmax - Максимальная температура - максимум температуры воздуха на высоте 2 м над землей.
R - Количество осадков - Количество выпавших осадков за период времени, мм. При наведении курсора мыши на число - период времени, за который выпало указанное количество осадков.
R24 - Количество осадков - Количество выпавших осадков за 24 часа, мм.
S - Снежный покров - Высота снежного покрова, см. При наведении курсора мыши на число - состояние снежного покрова и степень покрытия местности в баллах.